Weather History for Cullman Regional Airport, LA

Change the Weather History Date:

Thursday, January 2, 2014

  Actual Average Record
Temperature  
Mean Temperature 34 °F -  
Max Temperature 47 °F - - ()
Min Temperature 21 °F - - ()
Degree Days  
Heating Degree Days 30    
Moisture  
Dew Point 32 °F    
Average Humidity 85    
Maximum Humidity 99    
Minimum Humidity 59    
Precipitation  
Precipitation 0.29 in - - ()
Sea Level Pressure  
Sea Level Pressure 30.06 in    
Wind  
Wind Speed 10 mph (WNW)    
Max Wind Speed 17 mph    
Max Gust Speed 30 mph    
Visibility 8 miles    
Events Rain    
T = Trace of Precipitation, MM = Missing Value Source: NWS Daily Summary

Daily Weather History Graph

Daily Weather History Graph

Search for Another Location

Airport:

Trip Planner

Search our weather history database for the weather conditions in past years. The results will help you decide how hot, cold, wet, or windy it might be!

Date:

Astronomy

Jan. 02, 2014 Rise Set
Actual Time 6:53 AM CST 4:49 PM CST
Civil Twilight 6:26 AM CST 5:17 PM CST
Nautical Twilight 5:54 AM CST 5:48 PM CST
Astronomical Twilight 5:24 AM CST 6:18 PM CST
Moon 7:39 AM CST (1/2) 6:40 PM CST (1/2)
Length of Visible Light 10h 51m
Length of Day
9h 55m
Waxing Crescent, 3% of the Moon is Illuminated
Jan 2
Waxing Crescent
Jan 7
First Quarter
Jan 15
Full
Jan 23
Last Quarter
Jan 30
New

Hourly Weather History & Observations

Time (CST) Temp. Windchill Dew Point Humidity Pressure Visibility Wind Dir Wind Speed Gust Speed Precip Events Conditions
12:15 AM 44.1 °F 37.7 °F 40.8 °F 88% 30.05 in 10.0 mi South 12.7 mph - N/A   Overcast
12:35 AM 44.1 °F 38.6 °F 41.2 °F 90% 30.03 in 10.0 mi South 10.4 mph - N/A Rain Rain
12:55 AM 43.7 °F 38.6 °F 41.7 °F 93% 30.02 in 10.0 mi SSE 9.2 mph - 0.01 in   Mostly Cloudy
1:15 AM 43.7 °F 38.6 °F 41.9 °F 93% 30.02 in 10.0 mi South 9.2 mph - N/A   Mostly Cloudy
1:35 AM 43.7 °F 39.1 °F 41.9 °F 93% 30.01 in 10.0 mi South 8.1 mph - N/A Rain Rain
1:55 AM 43.7 °F 38.1 °F 42.1 °F 94% 30.01 in 10.0 mi South 10.4 mph - N/A   Mostly Cloudy
2:15 AM 43.7 °F 38.6 °F 42.4 °F 95% 30.01 in 10.0 mi South 9.2 mph - N/A   Overcast
2:35 AM 43.9 °F 37.9 °F 42.8 °F 96% 29.99 in 7.0 mi South 11.5 mph - 0.02 in Rain Heavy Rain
2:55 AM 43.7 °F 38.1 °F 42.8 °F 97% 29.99 in 7.0 mi South 10.4 mph - 0.04 in Rain Light Rain
3:15 AM 43.7 °F 38.6 °F 43.0 °F 97% 29.98 in 5.0 mi South 9.2 mph - 0.01 in Rain Rain
3:35 AM 43.9 °F 38.8 °F 43.3 °F 98% 29.96 in 7.0 mi South 9.2 mph - 0.02 in Rain Light Rain
3:55 AM 44.1 °F 39.5 °F 43.5 °F 98% 29.95 in 5.0 mi South 8.1 mph - 0.02 in   Drizzle
4:15 AM 44.1 °F 39.5 °F 43.7 °F 99% 29.95 in 4.0 mi South 8.1 mph - 0.04 in Rain Heavy Rain
4:35 AM 44.2 °F 41.8 °F 43.7 °F 98% 29.95 in 3.0 mi SW 4.6 mph - 0.08 in Rain Rain
4:55 AM 44.4 °F - 43.9 °F 98% 29.94 in 4.0 mi Calm Calm - 0.09 in Rain Rain
5:15 AM 44.2 °F 42.7 °F 43.9 °F 99% 29.94 in 3.0 mi South 3.5 mph - N/A   Heavy Drizzle
5:35 AM 44.6 °F 42.2 °F 44.1 °F 98% 29.93 in 5.0 mi South 4.6 mph - 0.01 in   Drizzle
5:55 AM 44.6 °F 42.2 °F 44.2 °F 99% 29.92 in 7.0 mi South 4.6 mph - 0.01 in   Drizzle
6:15 AM 44.8 °F 42.4 °F 44.4 °F 99% 29.91 in 7.0 mi South 4.6 mph - N/A   Light Drizzle
6:35 AM 45.0 °F 42.6 °F 44.6 °F 99% 29.91 in 4.0 mi South 4.6 mph - 0.01 in Rain Rain
6:55 AM 45.0 °F 42.6 °F 44.6 °F 99% 29.91 in 3.0 mi South 4.6 mph - 0.04 in   Heavy Drizzle
7:15 AM 45.3 °F 42.3 °F 44.8 °F 98% 29.90 in 3.0 mi South 5.8 mph - 0.05 in Rain Rain
7:35 AM 45.5 °F 42.5 °F 45.0 °F 98% 29.90 in 4.0 mi SSW 5.8 mph - 0.06 in   Drizzle
7:55 AM 45.5 °F 42.5 °F 45.0 °F 98% 29.90 in 4.0 mi SSW 5.8 mph - 0.06 in   Drizzle
8:15 AM 45.7 °F 42.7 °F 45.3 °F 99% 29.89 in 2.5 mi SSW 5.8 mph - N/A   Overcast
8:35 AM 46.0 °F 41.9 °F 45.7 °F 99% 29.90 in 2.5 mi SSW 8.1 mph - 0.01 in   Overcast
8:55 AM 46.2 °F 43.3 °F 46.0 °F 99% 29.90 in 1.5 mi SW 5.8 mph - 0.01 in   Drizzle
9:15 AM 46.6 °F - 46.4 °F 99% 29.91 in 1.5 mi WSW 5.8 mph - N/A   Heavy Drizzle
9:35 AM 47.1 °F - 46.9 °F 99% 29.91 in 1.8 mi WSW 8.1 mph - N/A   Drizzle
9:55 AM 47.3 °F - 46.9 °F 99% 29.92 in 1.5 mi West 6.9 mph - 0.01 in   Drizzle
10:15 AM 47.3 °F - 46.6 °F 97% 29.93 in 5.0 mi WNW 11.5 mph 23.0 mph N/A Rain Light Rain
10:35 AM 45.5 °F 41.3 °F 43.9 °F 94% 29.94 in 10.0 mi NNW 8.1 mph 21.9 mph N/A   Overcast
10:55 AM 44.2 °F 37.6 °F 41.9 °F 91% 29.94 in 10.0 mi NW 13.8 mph 23.0 mph N/A   Overcast
11:15 AM 43.3 °F 36.8 °F 40.1 °F 88% 29.95 in 10.0 mi NW 12.7 mph 20.7 mph N/A   Overcast
11:35 AM 42.1 °F 35.2 °F 38.8 °F 88% 29.96 in 10.0 mi NW 12.7 mph 24.2 mph N/A   Overcast
11:55 AM 40.8 °F 35.6 °F 38.3 °F 91% 29.96 in 10.0 mi NW 8.1 mph 18.4 mph N/A   Overcast
12:15 PM 39.7 °F 32.3 °F 36.9 °F 89% 29.97 in 10.0 mi NW 12.7 mph 27.6 mph N/A   Overcast
12:35 PM 37.8 °F 29.4 °F 34.7 °F 89% 29.97 in 10.0 mi NW 13.8 mph 25.3 mph N/A   Overcast
12:55 PM 36.1 °F 27.7 °F 33.1 °F 89% 29.99 in 10.0 mi NW 12.7 mph 27.6 mph N/A   Overcast
1:15 PM 34.9 °F 25.3 °F 32.2 °F 90% 30.00 in 10.0 mi NW 15.0 mph 29.9 mph N/A   Overcast
1:35 PM 34.2 °F 26.2 °F 31.8 °F 91% 30.01 in 10.0 mi NNW 10.4 mph 20.7 mph N/A   Overcast
1:55 PM 33.4 °F 23.9 °F 30.4 °F 89% 30.03 in 10.0 mi NW 13.8 mph 28.8 mph N/A   Overcast
2:15 PM 32.4 °F 23.0 °F 29.1 °F 88% 30.04 in 10.0 mi WNW 12.7 mph 20.7 mph N/A   Overcast
2:35 PM 31.6 °F 22.1 °F 28.4 °F 88% 30.06 in 10.0 mi NW 12.7 mph 20.7 mph N/A   Overcast
2:55 PM 30.9 °F 22.2 °F 27.5 °F 87% 30.07 in 10.0 mi NW 10.4 mph 17.3 mph N/A   Overcast
3:15 PM 30.4 °F 20.0 °F 26.8 °F 86% 30.08 in 10.0 mi NW 13.8 mph 19.6 mph N/A   Overcast
3:35 PM 30.7 °F 22.6 °F 26.1 °F 83% 30.09 in 10.0 mi WNW 9.2 mph 16.1 mph N/A   Overcast
3:55 PM 30.2 °F 20.8 °F 25.2 °F 82% 30.11 in 10.0 mi NW 11.5 mph 23.0 mph N/A   Mostly Cloudy
4:15 PM 29.7 °F 21.3 °F 23.5 °F 78% 30.12 in 10.0 mi WNW 9.2 mph 18.4 mph N/A   Mostly Cloudy
4:35 PM 29.3 °F 19.6 °F 23.7 °F 80% 30.11 in 10.0 mi NNW 11.5 mph 20.7 mph N/A   Mostly Cloudy
4:55 PM 29.3 °F 21.5 °F 22.5 °F 76% 30.13 in 10.0 mi NW 8.1 mph 23.0 mph N/A   Mostly Cloudy
5:15 PM 28.8 °F 19.5 °F 22.3 °F 77% 30.14 in 10.0 mi NW 10.4 mph 16.1 mph N/A   Mostly Cloudy
5:35 PM 28.4 °F 18.5 °F 21.7 °F 76% 30.16 in 10.0 mi NW 11.5 mph 21.9 mph N/A   Mostly Cloudy
5:55 PM 28.2 °F 18.9 °F 20.7 °F 73% 30.17 in 10.0 mi NW 10.4 mph 21.9 mph N/A   Overcast
6:15 PM 27.9 °F 17.3 °F 20.3 °F 73% 30.16 in 10.0 mi NW 12.7 mph 18.4 mph N/A   Overcast
6:35 PM 27.5 °F 16.8 °F 19.6 °F 72% 30.18 in 10.0 mi NW 12.7 mph 18.4 mph N/A   Mostly Cloudy
6:55 PM 27.1 °F 16.9 °F 19.0 °F 72% 30.19 in 10.0 mi NNW 11.5 mph 20.7 mph N/A   Mostly Cloudy
7:15 PM 26.6 °F 15.7 °F 17.4 °F 68% 30.20 in 10.0 mi NW 12.7 mph 28.8 mph N/A   Overcast
7:35 PM 26.1 °F 15.0 °F 16.5 °F 67% 30.22 in 10.0 mi NW 12.7 mph 20.7 mph N/A   Overcast
7:55 PM 25.9 °F 15.3 °F 16.5 °F 68% 30.23 in 10.0 mi NW 11.5 mph 20.7 mph N/A   Mostly Cloudy
8:15 PM 25.2 °F 14.4 °F 16.0 °F 68% 30.25 in 10.0 mi NW 11.5 mph 18.4 mph N/A   Mostly Cloudy
8:35 PM 24.8 °F 12.9 °F 14.9 °F 66% 30.26 in 10.0 mi NNW 13.8 mph 21.9 mph N/A   Overcast
8:55 PM 24.6 °F 13.8 °F 13.8 °F 64% 30.26 in 10.0 mi NW 11.5 mph 21.9 mph N/A   Overcast
9:15 PM 24.3 °F 10.8 °F 13.5 °F 63% 30.27 in 10.0 mi NNW 17.3 mph 25.3 mph N/A   Mostly Cloudy
9:35 PM 23.7 °F 13.3 °F 11.1 °F 59% 30.28 in 10.0 mi NNW 10.4 mph 24.2 mph N/A   Mostly Cloudy
9:55 PM 23.4 °F 14.3 °F 11.1 °F 60% 30.29 in 10.0 mi NNW 8.1 mph 18.4 mph N/A   Overcast
10:15 PM 23.4 °F 13.5 °F 11.7 °F 61% 30.29 in 10.0 mi NNW 9.2 mph 18.4 mph N/A   Overcast
10:35 PM 23.4 °F 12.2 °F 11.8 °F 61% 30.30 in 10.0 mi NNW 11.5 mph 21.9 mph N/A   Overcast
10:55 PM 22.8 °F 12.2 °F 10.6 °F 59% 30.30 in 10.0 mi North 10.4 mph 23.0 mph N/A   Scattered Clouds
11:15 PM 22.1 °F 12.8 °F 10.0 °F 60% 30.31 in 10.0 mi North 8.1 mph - N/A   Mostly Cloudy
11:35 PM 22.1 °F 12.0 °F 10.6 °F 61% 30.31 in 10.0 mi North 9.2 mph - N/A   Mostly Cloudy
11:55 PM 21.9 °F 14.5 °F 11.1 °F 63% 30.32 in 10.0 mi North 5.8 mph - N/A   Mostly Cloudy